Weather History for FABL - March, 2013

Change the Weather History Date:

Thursday, March 21, 2013

  Actual Average Record
Temperature  
Mean Temperature 72 °F -  
Max Temperature 93 °F 75 °F 93 °F (2013)
Min Temperature 50 °F 46 °F 37 °F (2009)
Cooling Degree Days 6    
Growing Degree Days 22 (Base 50)    
Moisture  
Dew Point 42 °F    
Average Humidity 37    
Maximum Humidity 66    
Minimum Humidity 5    
Precipitation  
Precipitation 0.00 in 0.08 in - ()
Sea Level Pressure  
Sea Level Pressure 30.20 in    
Wind  
Wind Speed 4 mph ()    
Max Wind Speed 13 mph    
Max Gust Speed -    
Visibility 12.6 miles    
Events      
Averages and records for this station are not official NWS values.
T = Trace of Precipitation, MM = Missing Value Source: Averaged Metar Reports

Daily Weather History Graph

Daily Weather History Graph

Search for Another Location

Airport or City:

Trip Planner

Search our weather history database for the weather conditions in past years. The results will help you decide how hot, cold, wet, or windy it might be!

Date:

Astronomy

Mar. 21, 2013 Rise Set
Actual Time 6:18 AM SAST 6:24 PM SAST
Civil Twilight 5:55 AM SAST 6:48 PM SAST
Nautical Twilight 5:27 AM SAST 7:15 PM SAST
Astronomical Twilight 4:59 AM SAST 7:43 PM SAST
Moon 2:24 PM SAST (3/21) 12:34 AM SAST (3/21)
Length of Visible Light 12h 53m
Length of Day
12h 05m
Waxing Gibbous, 66% of the Moon is Illuminated
Mar 21
Waxing Gibbous
Mar 27
Full
Apr 3
Last Quarter
Apr 10
New
Apr 18
First Quarter

Hourly Weather History & Observations

Time (SAST) Temp. Heat Index Dew Point Humidity Pressure Visibility Wind Dir Wind Speed Gust Speed Precip Events Conditions
12:00 AM 57.2 °F - 37.4 °F 48% 30.24 in - SSW 2.3 mph - N/A   Unknown
1:00 AM 57.2 °F - 37.4 °F 48% 30.24 in - Calm Calm - N/A   Unknown
2:00 AM 56 °F - 39 °F 40%  in - SW 3.5 mph - -  
2:00 AM 55.4 °F - 37.4 °F 51% 30.24 in - SW 2.3 mph - N/A   Unknown
3:00 AM 55.4 °F - 37.4 °F 51% 30.24 in - WSW 2.3 mph - N/A   Unknown
4:00 AM 51.8 °F - 37.4 °F 58% 30.21 in - Calm Calm - N/A   Unknown
5:00 AM 51 °F - 40 °F 55%  in 19 mi West 2.3 mph - -  
5:00 AM 50.0 °F - 39.2 °F 66% 30.24 in - West 2.3 mph - N/A   Clear
6:00 AM 53.6 °F - 39.2 °F 58% 30.18 in - NE 4.6 mph - N/A   Clear
7:00 AM 53.6 °F - 41.0 °F 62% 30.21 in - Calm Calm - N/A   Clear
7:09 AM 57.2 °F - 41.0 °F 55% 30.21 in - Variable 1.2 mph - N/A   Clear
8:00 AM 64 °F - 39 °F 28%  in 19 mi NE 3.5 mph - -  
8:00 AM 62.6 °F - 37.4 °F 39% 30.30 in - NE 3.5 mph - N/A   Clear
8:17 AM 66.2 °F - 41.0 °F 40% 30.24 in - ENE 4.6 mph - N/A   Clear
8:44 AM 69.8 °F - 42.8 °F 38% 30.24 in - NNE 4.6 mph - N/A   Clear
9:00 AM 71.6 °F - 46.4 °F 41% 30.24 in - NNE 4.6 mph - N/A   Clear
9:20 AM 75.2 °F - 50.0 °F 41% 30.24 in - NNE 4.6 mph - N/A   Clear
10:00 AM 78.8 °F - 51.8 °F 39% 30.24 in - North 11.5 mph - N/A   Clear
11:00 AM 82.4 °F - 50.0 °F 32% 30.27 in - NW 10.4 mph - N/A   Clear
12:00 PM 84.2 °F 82.8 °F 53.6 °F 35% 30.18 in - NW 12.7 mph - N/A   Clear
1:00 PM 86.0 °F 84.2 °F 53.6 °F 33% 30.15 in - NW 11.5 mph - N/A   Clear
2:00 PM 90 °F - 44 °F 12%  in 19 mi West 8.1 mph - -   Scattered Clouds
2:00 PM 89.6 °F - 42.8 °F 20% 30.21 in 6.2 mi West 8.1 mph - N/A   Partly Cloudy
3:00 PM 91.4 °F - 46.4 °F 21% 30.09 in 6.2 mi WNW 12.7 mph - N/A   Partly Cloudy
4:00 PM 91.4 °F - 42.8 °F 18% 30.09 in 6.2 mi WNW 10.4 mph - N/A   Partly Cloudy
5:00 PM 92 °F - 31 °F 5%  in 19 mi WSW 8.1 mph - -   Scattered Clouds
5:00 PM 91.4 °F - 32.0 °F 12% 30.15 in 6.2 mi WSW 8.1 mph - N/A   Partly Cloudy
6:00 PM 89.6 °F - 41.0 °F 18% 30.09 in - WNW 5.8 mph - N/A   Clear
7:00 PM 82.4 °F - 42.8 °F 25% 30.09 in - NNW 2.3 mph - N/A   Clear
8:00 PM 72 °F - 39 °F 20%  in 19 mi West 2.3 mph - -   Scattered Clouds
8:00 PM 71.6 °F - 39.2 °F 31% 30.15 in - West 2.3 mph - N/A   Clear
9:00 PM 69.8 °F - 44.6 °F 40% 30.12 in 6.2 mi NW 3.5 mph - N/A   Unknown
10:00 PM 68.0 °F - 44.6 °F 43% 30.18 in - Calm Calm - N/A   Unknown
11:00 PM 66 °F - 44 °F 33%  in - Calm Calm - -  
11:00 PM 64.4 °F - 42.8 °F 45% 30.18 in - South 1.2 mph - N/A   Unknown